#timestamp,LO_Frequency,Hit,StdDev 
1699228815.4,286046992.5,N
1699228835.2,286046990.9,N
1699228855.1,286046992.9,N
1699228856.0,286046992.9,N
1699228875.8,286046995.3,N
1699228895.6,286046993.9,N
1699228915.5,286046995.8,N
1699228935.3,286047002.6,N
1699228955.2,286047000.7,N
1699228975.9,286047000.7,N
1699228995.7,286047000.0,N
1699229015.6,286046997.2,N
1699229035.4,286046993.8,N
1699229055.2,286046990.6,N
1699229075.1,286046987.0,N
1699229076.0,286046987.0,N
1699229095.8,286046985.6,N
1699229115.7,286046991.2,N
1699229135.5,286046995.3,N
1699229155.3,286046997.5,N
1699229175.2,286046997.3,N
1699229195.0,286047001.2,N
1699229195.9,286047001.2,N
1699229215.8,286046999.8,N
1699229235.6,286047002.1,N
1699229255.4,286047001.2,N
1699229275.3,286047002.7,N
1699229295.1,286047004.0,N
1699229315.8,286047002.7,N
1699229335.7,286047000.3,N
1699229355.5,286047004.4,N
1699229375.4,286047003.1,N
1699229395.2,286047004.2,N
1699229415.0,286047002.7,N
1699229415.9,286047002.7,N
1699229435.8,286047004.1,N
1699229455.6,286047009.1,N
1699229475.4,286047005.4,N
1699229495.3,286047007.6,N
1699229515.1,286047006.3,N
1699229535.9,286047010.9,N
1699229555.7,286047011.3,N
1699229575.5,286047012.1,N
1699229595.4,286047009.9,N
1699229615.2,286047007.8,N
1699229635.0,286047005.7,N
1699229635.9,286047005.7,N
1699229655.8,286047002.3,N
1699229675.6,286047002.5,N
1699229695.5,286047000.0,N
1699229715.3,286047000.0,N
1699229735.1,286047004.7,N
1699229755.9,286047008.8,N
1699229775.7,286047008.7,N
1699229795.5,286047006.0,N
1699229815.4,286047007.2,N
1699229835.2,286047003.4,N
1699229855.1,286047001.7,N
1699229856.0,286047001.7,N
1699229875.8,286047004.0,N
1699229895.6,286047008.9,N
1699229915.5,286047010.0,Y
1699229935.3,286047003.0,P
1699229955.2,286047006.5,P
1699229975.9,286047010.5,P
1699229995.7,286047012.9,Y
1699230015.6,286047010.3,P
1699230035.4,286047003.2,N
1699230055.2,286047002.2,N
1699230075.1,286046997.5,N
1699230076.0,286046997.5,N
1699230095.8,286046996.9,N
1699230115.7,286047001.0,N
1699230135.5,286047000.3,N
1699230155.3,286046998.6,N
1699230175.2,286046998.8,N
1699230195.0,286046993.6,N
1699230195.9,286046993.6,N
1699230215.8,286046992.2,N
1699230235.6,286046992.7,N
1699230255.4,286046991.4,N
1699230275.3,286046991.4,N
1699230295.1,286046992.3,N
1699230315.9,286046992.1,N
1699230335.7,286046987.0,N
1699230355.6,286046986.6,N
1699230375.4,286046984.6,N
1699230395.2,286046988.0,N
1699230415.1,286046986.5,N
1699230416.0,286046986.5,N
1699230435.8,286046984.1,N
1699230455.6,286046986.6,N
1699230475.5,286046985.0,N
1699230495.3,286046982.8,N
1699230515.2,286046983.4,N
1699230535.9,286046979.9,N
1699230555.7,286046975.7,Y
1699230575.6,286046986.1,P
1699230595.4,286046987.4,P
1699230615.2,286046992.8,N
1699230635.1,286046991.2,Y
1699230636.0,286046991.2,P
1699230655.8,286047000.3,N
1699230675.7,286047000.0,N
1699230695.5,286047001.9,N
1699230715.3,286047005.1,N
1699230735.2,286047007.4,N
1699230755.0,286047005.3,N
1699230755.9,286047005.3,N
1699230775.8,286047002.0,N
1699230795.6,286047000.5,N
1699230815.4,286047001.9,N
1699230835.3,286046998.4,N
1699230855.1,286046997.7,N
1699230875.8,286046997.8,N
1699230895.7,286047002.2,N
1699230915.5,286047003.4,N
1699230935.4,286047004.8,N
1699230955.2,286047003.8,N
1699230975.0,286047004.8,N
1699230975.9,286047004.8,N
1699230995.8,286047003.4,N
1699231015.6,286046999.5,N
1699231035.4,286046995.8,N
1699231055.3,286047002.3,N
1699231075.1,286047003.2,N
1699231095.9,286047005.3,N
1699231115.7,286047003.0,N
1699231135.5,286047005.7,N
1699231155.4,286047004.6,N
1699231175.2,286047006.9,N
1699231195.0,286047007.7,N
1699231195.9,286047007.7,N
1699231215.8,286047006.1,N
1699231235.6,286047006.3,N
1699231255.5,286047007.1,N
1699231275.3,286047009.2,N
1699231295.1,286047007.3,N
1699231315.9,286047002.0,N
1699231335.7,286047004.4,N
1699231355.5,286047005.8,N
1699231375.4,286047008.3,N
1699231395.2,286047013.3,Y
1699231415.1,286047007.2,P
1699231416.0,286047007.2,P
1699231435.8,286046998.6,N
1699231455.6,286047007.6,N
1699231475.5,286047003.7,N
1699231495.3,286047005.7,N
1699231515.2,286047006.6,N
1699231535.9,286047005.1,N
1699231555.7,286047005.9,N
1699231575.6,286047006.9,N
1699231595.4,286047003.0,N
1699231615.2,286047005.9,N
1699231635.1,286047000.6,N
1699231636.0,286047000.6,N
1699231655.8,286047001.6,N
1699231675.7,286047001.9,N
1699231695.5,286047002.1,N
1699231715.3,286047002.3,N
1699231735.2,286047002.2,N
1699231755.9,286047003.8,N
1699231775.7,286047003.5,N
1699231795.6,286047003.8,N
1699231815.4,286047002.2,N
1699231835.3,286047003.6,N
1699231855.1,286047005.9,N
1699231856.0,286047005.9,N
1699231875.8,286047002.7,N
1699231895.7,286047004.4,N
1699231915.5,286047001.4,N
1699231935.3,286047001.0,N
1699231955.2,286046999.5,N
1699231975.0,286047000.4,N
1699231975.9,286047000.4,N
1699231995.8,286047000.7,N
1699232015.6,286047001.5,N
1699232035.4,286047002.0,N
1699232055.3,286047002.6,N
1699232075.1,286047000.4,N
1699232095.8,286047001.5,N
1699232115.7,286047005.3,N
1699232135.5,286047004.0,N
1699232155.4,286047003.0,N
1699232175.2,286047000.7,N
1699232195.0,286047003.2,N
1699232195.9,286047003.2,N
1699232215.8,286047007.7,Y
1699232235.6,286047004.1,P
1699232255.5,286047001.8,N
1699232275.3,286046996.5,P
1699232295.1,286046996.5,N
1699232315.9,286046998.9,N
1699232335.7,286047000.4,N
1699232355.5,286047000.6,N
1699232375.4,286047002.5,N
1699232395.2,286046999.8,N
